Time,TemperatureF,DewpointF,PressureIn,WindDirection,WindDirectionDegrees,WindSpeedMPH,WindSpeedGustMPH,Humidity,HourlyPrecipIn,Conditions,Clouds,dailyrainin,SoftwareType,DateUTC
2013-11-04 00:42:00,43.0,42.0,-100.00,South,180,1.0,2.0,94,-99.99,,,-99.99,,2013-11-04 08:42:00,
2013-11-04 01:21:00,43.0,41.0,-100.00,SE,135,1.0,3.0,94,-99.99,,,-99.99,,2013-11-04 09:21:00,
2013-11-04 01:43:00,43.0,41.0,-100.00,South,180,1.0,6.0,94,-99.99,,,-99.99,,2013-11-04 09:43:00,
2013-11-04 02:42:00,42.0,41.0,-100.00,East,90,1.0,3.0,96,-99.99,,,-99.99,,2013-11-04 10:42:00,
2013-11-04 03:42:00,42.0,41.0,-100.00,East,90,3.0,4.0,96,-99.99,,,-99.99,,2013-11-04 11:42:00,
2013-11-04 04:42:00,43.0,42.0,-100.00,South,180,1.0,3.0,97,-99.99,,,-99.99,,2013-11-04 12:42:00,
2013-11-04 05:21:00,43.0,42.0,-100.00,East,90,1.0,4.0,97,-99.99,,,-99.99,,2013-11-04 13:21:00,
2013-11-04 05:32:00,43.0,42.0,-100.00,East,90,1.0,4.0,97,-99.99,,,-99.99,,2013-11-04 13:32:00,
2013-11-04 06:22:00,43.0,42.0,-100.00,SE,135,0.0,4.0,98,-99.99,,,-99.99,,2013-11-04 14:22:00,
2013-11-04 06:42:00,43.0,42.0,-100.00,SE,135,1.0,4.0,98,-99.99,,,-99.99,,2013-11-04 14:42:00,
2013-11-04 06:52:00,43.0,42.0,-100.00,SE,135,1.0,4.0,98,-99.99,,,-99.99,,2013-11-04 14:52:00,
2013-11-04 07:11:00,43.0,42.0,-100.00,East,90,1.0,4.0,99,-99.99,,,-99.99,,2013-11-04 15:11:00,
2013-11-04 07:21:00,43.0,42.0,-100.00,East,90,1.0,4.0,99,-99.99,,,-99.99,,2013-11-04 15:21:00,
2013-11-04 07:42:00,43.0,42.0,-100.00,East,90,1.0,3.0,99,-99.99,,,-99.99,,2013-11-04 15:42:00,
2013-11-04 08:12:00,43.0,43.0,-100.00,SE,135,0.0,2.0,99,-99.99,,,-99.99,,2013-11-04 16:12:00,
2013-11-04 08:23:00,43.0,43.0,-100.00,South,180,1.0,2.0,99,-99.99,,,-99.99,,2013-11-04 16:23:00,
2013-11-04 08:43:00,43.0,43.0,-100.00,SE,135,0.0,2.0,99,-99.99,,,-99.99,,2013-11-04 16:43:00,
2013-11-04 08:53:00,43.0,43.0,-100.00,NE,45,1.0,2.0,99,-99.99,,,-99.99,,2013-11-04 16:53:00,
2013-11-04 09:12:00,43.0,43.0,-100.00,SE,135,0.0,2.0,99,-99.99,,,-99.99,,2013-11-04 17:12:00,
2013-11-04 10:23:00,44.0,43.0,-100.00,NW,315,1.0,3.0,99,-99.99,,,-99.99,,2013-11-04 18:23:00,
2013-11-04 10:42:00,44.0,44.0,-100.00,North,0,1.0,3.0,99,-99.99,,,-99.99,,2013-11-04 18:42:00,
2013-11-04 10:52:00,44.0,44.0,-100.00,NW,315,2.0,3.0,99,-99.99,,,-99.99,,2013-11-04 18:52:00,
2013-11-04 11:01:00,44.0,44.0,-100.00,NW,315,2.0,3.0,99,-99.99,,,-99.99,,2013-11-04 19:01:00,
2013-11-04 11:22:00,44.0,44.0,-100.00,NW,315,2.0,3.0,99,-99.99,,,-99.99,,2013-11-04 19:22:00,
2013-11-04 11:42:00,45.0,44.0,-100.00,SE,135,0.0,4.0,98,-99.99,,,-99.99,,2013-11-04 19:42:00,
2013-11-04 12:42:00,44.0,44.0,-100.00,South,180,1.0,2.0,98,-99.99,,,-99.99,,2013-11-04 20:42:00,
2013-11-04 13:12:00,44.0,44.0,-100.00,East,90,1.0,3.0,98,-99.99,,,-99.99,,2013-11-04 21:12:00,